Location: Maiden
(35.5760°N, 81.2120°W)
Time: 21:59:05
(UTC-04:00)

A-11 Canister half - Pass Details

Date: 18 August 2020
Orbit: 1514 x 1686 km, 47.2° (Epoch: 26 September)

Event Time Altitude Azimuth Distance (km) Brightness Sun altitude
Rises 00:20:55 0° 302° (WNW) 4,858 12.2 -38.9°
Reaches altitude 10° 00:24:08 10° 297° (WNW) 3,890 11.5 -39.1°
Enters shadow 00:31:27 44° 258° (WSW) 2,193 9.7 -39.6°
